Weather History for Roseau, MN

Change the Weather History Date:

Friday, November 16, 2012

  Actual Average Record
Temperature  
Mean Temperature 26 °F -  
Max Temperature 39 °F 34 °F 62 °F (2001)
Min Temperature 14 °F 19 °F -11 °F (1959)
Degree Days  
Heating Degree Days 38    
Moisture  
Dew Point 16 °F    
Average Humidity 62    
Maximum Humidity 79    
Minimum Humidity 42    
Precipitation  
Precipitation 0.00 in - - ()
Sea Level Pressure  
Sea Level Pressure 30.25 in    
Wind  
Wind Speed 10 mph (South)    
Max Wind Speed 18 mph    
Max Gust Speed 23 mph    
Visibility 10 miles    
Events      
Averages and records for this station are not official NWS values.
T = Trace of Precipitation, MM = Missing Value Source: NWS Daily Summary

Daily Weather History Graph

Daily Weather History Graph

Search for Another Location

Airport:

Trip Planner

Search our weather history database for the weather conditions in past years. The results will help you decide how hot, cold, wet, or windy it might be!

Date:

Astronomy

Nov. 16, 2012 Rise Set
Actual Time 7:34 AM CST 4:40 PM CST
Civil Twilight 6:59 AM CST 5:15 PM CST
Nautical Twilight 6:20 AM CST 5:53 PM CST
Astronomical Twilight 5:43 AM CST 6:31 PM CST
Moon 10:34 AM CST (11/16) 7:37 PM CST (11/16)
Length of Visible Light 10h 15m
Length of Day
9h 06m
Waxing Crescent, 12% of the Moon is Illuminated
Nov 16
Waxing Crescent
Nov 20
First Quarter
Nov 28
Full
Dec 6
Last Quarter
Dec 13
New

Hourly Weather History & Observations

Time (CST) Temp. Windchill Dew Point Humidity Pressure Visibility Wind Dir Wind Speed Gust Speed Precip Events Conditions
12:14 AM 14.0 °F 5.1 °F 8.6 °F 79% 30.42 in 10.0 mi South 5.8 mph - N/A   Clear
12:35 AM 14.0 °F 2.0 °F 8.6 °F 79% 30.42 in 10.0 mi South 9.2 mph - N/A   Clear
12:54 AM 15.8 °F 4.2 °F 10.4 °F 79% 30.42 in 10.0 mi South 9.2 mph - N/A   Clear
1:14 AM 15.8 °F 4.2 °F 10.4 °F 79% 30.41 in 10.0 mi South 9.2 mph - N/A   Clear
1:34 AM 15.8 °F 5.1 °F 10.4 °F 79% 30.41 in 10.0 mi South 8.1 mph - N/A   Clear
1:54 AM 15.8 °F 3.4 °F 10.4 °F 79% 30.40 in 10.0 mi South 10.4 mph - N/A   Clear
2:14 AM 15.8 °F 4.2 °F 10.4 °F 79% 30.39 in 10.0 mi South 9.2 mph - N/A   Clear
2:34 AM 17.6 °F 6.4 °F 10.4 °F 73% 30.39 in 10.0 mi South 9.2 mph - N/A   Clear
2:54 AM 17.6 °F 8.2 °F 10.4 °F 73% 30.38 in 10.0 mi South 6.9 mph - N/A   Clear
3:14 AM 17.6 °F 8.2 °F 10.4 °F 73% 30.37 in 10.0 mi South 6.9 mph - N/A   Clear
3:34 AM 17.6 °F 8.2 °F 10.4 °F 73% 30.37 in 10.0 mi South 6.9 mph - N/A   Clear
3:54 AM 17.6 °F 8.2 °F 10.4 °F 73% 30.36 in 10.0 mi South 6.9 mph - N/A   Clear
4:14 AM 17.6 °F 7.3 °F 10.4 °F 73% 30.35 in 10.0 mi South 8.1 mph - N/A   Clear
4:34 AM 17.6 °F 7.3 °F 10.4 °F 73% 30.34 in 10.0 mi South 8.1 mph - N/A   Clear
4:54 AM 19.4 °F 8.6 °F 12.2 °F 74% 30.34 in 10.0 mi South 9.2 mph - N/A   Clear
5:14 AM 19.4 °F 9.5 °F 12.2 °F 74% 30.34 in 10.0 mi South 8.1 mph - N/A   Clear
5:34 AM 19.4 °F 10.4 °F 12.2 °F 74% 30.34 in 10.0 mi South 6.9 mph - N/A   Clear
5:54 AM 19.4 °F 12.8 °F 12.2 °F 74% 30.34 in 10.0 mi South 4.6 mph - N/A   Clear
6:14 AM 17.6 °F 9.3 °F 10.4 °F 73% 30.33 in 10.0 mi South 5.8 mph - N/A   Clear
6:34 AM 19.4 °F 10.4 °F 10.4 °F 68% 30.32 in 10.0 mi South 6.9 mph - N/A   Clear
6:54 AM 19.4 °F 10.4 °F 12.2 °F 74% 30.32 in 10.0 mi South 6.9 mph - N/A   Clear
7:14 AM 19.4 °F 10.4 °F 12.2 °F 74% 30.33 in 10.0 mi SSW 6.9 mph - N/A   Clear
7:34 AM 21.2 °F 11.7 °F 12.2 °F 68% 30.33 in 10.0 mi South 8.1 mph - N/A   Clear
7:54 AM 21.2 °F 11.7 °F 14.0 °F 74% 30.33 in 10.0 mi South 8.1 mph - N/A   Clear
8:14 AM 21.2 °F 10.9 °F 14.0 °F 74% 30.34 in 10.0 mi South 9.2 mph - N/A   Clear
8:34 AM 23.0 °F 12.4 °F 14.0 °F 68% 30.34 in 10.0 mi South 10.4 mph - N/A   Clear
8:54 AM 24.8 °F 14.0 °F 14.0 °F 64% 30.33 in 10.0 mi South 11.5 mph - N/A   Clear
9:14 AM 24.8 °F 14.0 °F 15.8 °F 69% 30.33 in 10.0 mi South 11.5 mph - N/A   Clear
9:34 AM 26.6 °F 14.7 °F 15.8 °F 64% 30.32 in 10.0 mi South 15.0 mph - N/A   Clear
9:54 AM 26.6 °F 14.7 °F 15.8 °F 64% 30.31 in 10.0 mi South 15.0 mph - N/A   Clear
10:15 AM 28.4 °F 17.5 °F 15.8 °F 59% 30.32 in 10.0 mi South 13.8 mph 19.6 mph N/A   Clear
10:34 AM 28.4 °F 16.6 °F 17.6 °F 64% 30.31 in 10.0 mi South 16.1 mph - N/A   Clear
10:54 AM 30.2 °F 18.9 °F 17.6 °F 60% 30.30 in 10.0 mi South 16.1 mph - N/A   Clear
11:15 AM 30.2 °F 19.3 °F 19.4 °F 64% 30.30 in 10.0 mi South 15.0 mph - N/A   Clear
11:34 AM 32.0 °F 21.2 °F 17.6 °F 55% 30.28 in 10.0 mi South 16.1 mph - N/A   Clear
11:54 AM 33.8 °F 24.3 °F 19.4 °F 56% 30.28 in 10.0 mi South 13.8 mph 17.3 mph N/A   Clear
12:15 PM 33.8 °F 24.8 °F 19.4 °F 56% 30.26 in 10.0 mi South 12.7 mph - N/A   Clear
12:34 PM 35.6 °F 26.2 °F 19.4 °F 52% 30.26 in 10.0 mi South 15.0 mph 19.6 mph N/A   Clear
12:54 PM 35.6 °F 26.6 °F 21.2 °F 56% 30.24 in 10.0 mi South 13.8 mph - N/A   Scattered Clouds
1:15 PM 37.4 °F 29.3 °F 21.2 °F 52% 30.23 in 10.0 mi SSE 12.7 mph - N/A   Scattered Clouds
1:34 PM 37.4 °F 27.8 °F 19.4 °F 48% 30.21 in 10.0 mi SSE 17.3 mph - N/A   Clear
1:54 PM 37.4 °F 28.5 °F 19.4 °F 48% 30.20 in 10.0 mi South 15.0 mph 20.7 mph N/A   Clear
2:15 PM 39.2 °F 31.2 °F 19.4 °F 45% 30.19 in 10.0 mi South 13.8 mph 18.4 mph N/A   Clear
2:34 PM 39.2 °F 30.8 °F 19.4 °F 45% 30.18 in 10.0 mi SSE 15.0 mph - N/A   Clear
2:54 PM 39.2 °F 29.8 °F 17.6 °F 42% 30.16 in 10.0 mi SSE 18.4 mph 23.0 mph N/A   Clear
3:15 PM 37.4 °F 29.3 °F 21.2 °F 52% 30.16 in 10.0 mi SSE 12.7 mph - N/A   Clear
3:34 PM 37.4 °F 28.5 °F 21.2 °F 52% 30.15 in 10.0 mi SSE 15.0 mph 18.4 mph N/A   Clear
3:54 PM 37.4 °F 28.9 °F 21.2 °F 52% 30.15 in 10.0 mi SSE 13.8 mph - N/A   Clear
4:15 PM 37.4 °F 28.9 °F 21.2 °F 52% 30.14 in 10.0 mi SSE 13.8 mph - N/A   Scattered Clouds
4:34 PM 37.4 °F 28.2 °F 19.4 °F 48% 30.13 in 10.0 mi SSE 16.1 mph - N/A   Scattered Clouds
4:54 PM 37.4 °F 28.2 °F 19.4 °F 48% 30.12 in 10.0 mi SSE 16.1 mph 23.0 mph N/A   Scattered Clouds
5:15 PM 37.4 °F 28.5 °F 17.6 °F 45% 30.12 in 10.0 mi SSE 15.0 mph - N/A   Scattered Clouds
5:34 PM 35.6 °F 25.9 °F 17.6 °F 48% 30.12 in 10.0 mi SSE 16.1 mph - N/A   Clear
5:54 PM 35.6 °F 25.9 °F 17.6 °F 48% 30.12 in 10.0 mi SSE 16.1 mph - N/A   Clear
6:15 PM 35.6 °F 25.9 °F 17.6 °F 48% 30.12 in 10.0 mi SSE 16.1 mph 20.7 mph N/A   Clear
6:34 PM 35.6 °F 26.2 °F 19.4 °F 52% 30.12 in 10.0 mi SSE 15.0 mph - N/A   Clear
6:54 PM 33.8 °F 24.8 °F 19.4 °F 56% 30.12 in 10.0 mi South 12.7 mph - N/A   Clear
7:15 PM 33.8 °F 23.5 °F 17.6 °F 52% 30.11 in 10.0 mi SSE 16.1 mph - N/A   Clear
7:54 PM 32.0 °F 23.6 °F 19.4 °F 60% 30.12 in 10.0 mi South 10.4 mph - N/A   Clear
8:14 PM 32.0 °F 23.6 °F 17.6 °F 55% 30.12 in 10.0 mi SSE 10.4 mph - N/A   Clear
8:34 PM 30.2 °F 21.9 °F 17.6 °F 60% 30.12 in 10.0 mi SSE 9.2 mph - N/A   Clear
8:54 PM 30.2 °F 21.9 °F 17.6 °F 60% 30.12 in 10.0 mi SSE 9.2 mph - N/A   Clear
9:14 PM 30.2 °F 20.2 °F 17.6 °F 60% 30.11 in 10.0 mi South 12.7 mph - N/A   Clear
9:54 PM 32.0 °F 22.5 °F 17.6 °F 55% 30.11 in 10.0 mi South 12.7 mph - N/A   Clear
10:14 PM 32.0 °F 23.0 °F 17.6 °F 55% 30.10 in 10.0 mi SSE 11.5 mph - N/A   Clear
10:34 PM 32.0 °F 23.0 °F 17.6 °F 55% 30.10 in 10.0 mi SSE 11.5 mph - N/A   Clear
10:54 PM 32.0 °F 23.6 °F 17.6 °F 55% 30.09 in 10.0 mi SSE 10.4 mph - N/A   Clear
11:14 PM 32.0 °F 23.6 °F 17.6 °F 55% 30.09 in 10.0 mi South 10.4 mph - N/A   Clear
11:34 PM 30.2 °F 21.3 °F 19.4 °F 64% 30.09 in 10.0 mi SSE 10.4 mph - N/A   Clear
11:54 PM 30.2 °F 20.8 °F 19.4 °F 64% 30.09 in 10.0 mi SSE 11.5 mph - N/A   Clear